map of FUN home
Great Circle Mapper logo
FUN - Airport
Location
City:  Funafuti Atoll, Tuvalu
Name:Funafuti Atoll International Airport
ICAO / IATA:NGFU / FUN

Details
Type:Airport (Aerodrome, Airfield)
Use:International (customs port of entry)
Latitude:831'30"S (-8.524999)
Longitude:17911'47"E (179.196389)
Elevation:9 ft (3 m)
Variation:10.5E (WMM2015 magnetic declination)
Runways:1
Longest:5000 ft (1524 m)

Time
Time Zone:UTC+12
Local Time:

Weather
METAR:NGFU 222100Z 28006KT 9999 VCSH SCT018TCU BKN110 29/26 Q1006
TAF:NGFU 221559Z 2218/2318 29010KT 9999 -SHRA BKN018 SCT050 OVC110
TEMPO 2218/2224 5000 TSRA BKN015 SCT018CB

Related Locations
Nearby:
Farthest:TML: 12359 mi / 19890 km
Tamale, GH

Find:

   beyond  
but within

Other Information
Maps:
NOTAMs:
Links:
Sources:

  
flag of Tuvalu   

Sectional Chart

Flight Planning
at skyvector.com

Satellite Image

Google Maps Satellite View

 

Copyright © 2004-2014 Karl L. Swartz. All rights reserved.
The Great Circle Mapper name and logo are trademarks of the Great Circle Mapper.
All other trademarks mentioned herein belong to their respective owners.
Please see credits for attibutions and further copyright information.

  Follow gcmap on Facebook Follow gcmap on Twitter

hCard Microformat

Geo Microformat